Weather in Atlantic City

United States     39°21′34″N   74°26′02″W
temp.,
°C
wind,
m/s
gust,
m/s
humid.,
%
clouds,
%
prec.,
mm/h
press.,
hPa
HPBL,
m
23 may, mon
mon2323:00+20wnw5789100 0.9 101764
02:00+19n569699 0.9 101765
05:00+17nnw71085100 0.0 1019212
08:00+16n7117097 0.0 1021372
11:00+17ne4671100 0.0 1022133
14:00+15ene8970100 0.0 1022233
17:00+16e576777 0.0 1021183
20:00+16sse3375100 0.0 102366
24 may, tue
tue2423:00+16se3378100 0.0 102373
02:00+16e3383100 0.0 1023162
05:00+15ne6781100 0.0 1023320
08:00+15ne7981100 0.1 1024382
11:00+15ene81072100 0.3 1025491
14:00+15e71173100 0.3 1025524
17:00+15e7972100 0.0 1024485
20:00+15e7972100 0.0 1025464
25 may, wed
wed2523:00+15e6874100 0.0 1025432
02:00+15ene6882100 0.0 1025429
05:00+15ene7884100 0.0 1025444
08:00+15e8980100 0.0 1026499
11:00+15e7878100 0.0 1027500
14:00+15ene8877100 0.0 1027464
17:00+15e8975100 0.0 1026449
20:00+15e797559 0.0 1027451
26 may, thu
thu2623:00+16e797899 0.0 1027466
02:00+16ese598268 0.0 1026398
05:00+16se61085100 0.2 1024386
08:00+16ese4789100 0.8 1025284
11:00+16e6994100 0.9 1024293
14:00+16se71295100 1.4 1022306
17:00+17sse8119576 0.3 1020239
20:00+17sse6109757 0.3 1019164
27 may, fri
fri2723:00+17ssw459748 0.0 101963
02:00+17ssw5109512 0.0 1018166
05:00+18ssw51097100 0.0 1017152
08:00+18ssw6996100 0.0 1017134
11:00+19ssw7109098 0.0 1017159
14:00+19s81394100 0.3 1015182
17:00+19s91593100 0.0 1014194
20:00+18ssw91696100 1.1 1014260